YSDU

Details ICAO YSDU (DBO)
Name Dubbo
Region Australia
Timezone Australia/Sydney (UTC+10.0)
Plans Departing 26
Arriving 47
Stats Elevation 935 ft / 285 m (AMSL)
Location -32.217486° 148.577269°
Runways 2
Magnetic Variation 11.083° E
Sunrise 2018-05-22 20:53:59 UTC / 2018-05-23 06:53:59 Local
Sunset 2018-05-23 07:13:41 UTC / 2018-05-23 17:13:41 Local
Advertisement - Login to hide

Runways

ID Width Length Bearing (true) Bearing (mag) Surface Threshold Offset Overrun Length
05 148 ft / 45 m 5,605 ft / 1,708 m 53.60° 42.52° Asphalt 0 ft / 0 m 0 ft / 0 m
11 59 ft / 18 m 3,498 ft / 1,066 m 119.18° 108.10° Asphalt 0 ft / 0 m 0 ft / 0 m
23 148 ft / 45 m 5,605 ft / 1,708 m 233.60° 222.52° Asphalt 0 ft / 0 m 0 ft / 0 m
29 59 ft / 18 m 3,498 ft / 1,066 m 299.17° 288.09° Asphalt 0 ft / 0 m 0 ft / 0 m

Map

Weather


0- 5 10 15 20 25 30 35+ Temperature / ° C

Clouds and Precipitation
Forecast for 2018-05-22 12:00 UTC. Updated 3 hours ago

Ground ~20,000 ft ~40,000 ft Winds

METAR

YSDU 221400Z AUTO 19007KT 9999 // BKN038 13/07 Q1025

TAF

TAF YSDU 221057Z 2212/2306 20010KT 9999 SCT040 FM221800 18008KT 9999 SCT015 SCT025 FM230200 16007KT 9999 FEW030

Frequencies

Unicom 121.30 MHz ACTIVATE LIGHTS ONLY MULT
Unicom 123.90 MHz MELBOURNE CENTRE MULT
Unicom 134.00 MHz DUBBO MULT
Warning: Do not use this data for real-world aviation or navigation. No guarantee of current accuracy is given.